User: anonymous   Login
Location: Prairie State College
(41.5244°N, 87.6382°W)
Time: 02:32:01
(UTC-06:00)
Language:

MSX - Orbit

View from above orbital plane
View from above orbital plane
View from above satellite
View from above satellite

Ground track
Ground track

The orbit data is extracted from the following two-line orbital elements,

1 23851U 96024A   15058.75242357 0.00000200  00000-0  14101-3 0    09
2 23851  98.7368  97.8990 0008394 136.0269 223.9730 13.98007134    07
Epoch (UTC): 27 February 2015 18:03:29
Eccentricity: 0.0008394
inclination: 98.7368°
perigee height: 894 km
apogee height: 907 km
right ascension of ascending node: 97.8990°
argument of perigee: 136.0269°
revolutions per day: 13.98007134
mean anomaly at epoch: 223.9730°
orbit number at epoch: 0

The dashed part of the orbit path shows where the satellite is in the earth's shadow,  

DLR